Regional Weather Roundup
Issued by NWS

Home | Current Version | Previous Version | Text Only | Print | Product List | Glossary On
Versions: 1 2 3 4 5 6 7 8 9 10 11 12 13 14 15 16 17 18 19 20 21 22 23 24 25 26 27
000
ASUS44 KJAN 271410
RWRMS

MISSISSIPPI HOURLY WEATHER ROUNDUP
NATIONAL WEATHER SERVICE JACKSON MS
900 AM CDT THU APR 27 2017

NOTE: "FAIR: INDICATES FEW OR NO CLOUDS BELOW 12,000 FEET WITH NO
SIGNIFICANT WEATHER AND/OR OBSTRUCTIONS TO VISIBILITY.

MSZ001>002-007>008-010>013-018>021-025>028-034>036-271500-
NORTHWEST MISSISSIPPI

CITY           SKY/WX    TMP DP  RH WIND       PRES   REMARKS
BATESVILLE     CLOUDY    54  48  82 NW5       29.84R
CLARKSDALE     CLOUDY    54  54 100 N7        29.84R
CLEVELAND      CLOUDY    54  50  87 NW10      29.85R
GREENWOOD      CLOUDY    55  51  86 NW6       29.84R
GREENVILLE     CLOUDY    54  47  77 N8        29.85R
OLIVE BRANCH   CLOUDY   N/A N/A N/A W5        29.80R
OXFORD         CLOUDY    50  48  93 NW9       29.85R
TUNICA         PTSUNNY   52  45  76 NW8       29.84R
WINONA         CLOUDY    53  53 100 NW3       29.83R FOG
$$

MSZ003>006-009-014>017-022>024-029>033-037>039-271500-
NORTHEAST MISSISSIPPI

CITY           SKY/WX    TMP DP  RH WIND       PRES   REMARKS
COLUMBUS AFB   CLOUDY    61  61 100 W15       29.79R
CORINTH        CLOUDY    55  52  88 W12       29.80R
STARKVILLE     CLOUDY    57  55  94 NW6       29.82R
TUPELO         CLOUDY    56  51  84 NW12      29.80R
$$

MSZ040-058-271500-
CENTRAL MISSISSIPPI

CITY           SKY/WX    TMP DP  RH WIND       PRES   REMARKS
JACKSON INTL   CLOUDY    57  55  93 W6        29.84R
JACKSON HAWKNS CLOUDY    56  54  93 NW8       29.85R
MADISON        CLOUDY    54  52  94 NW5       29.84R FOG
MERIDIAN KEY   MOSUNNY   68  63  84 W6        29.80R
MERIDIAN NAS   PTSUNNY   68  60  75 W9        29.80R
RAYMOND        CLOUDY    55  54  94 NW6       29.85R FOG
VICKSBURG VKS  CLOUDY    55  50  82 NW7       29.84R
$$

MSZ059>079-271500-
SOUTH MISSISSIPPI

CITY           SKY/WX    TMP DP  RH WIND       PRES   REMARKS
HATTIESBURG    CLOUDY    65  60  84 W7        29.82R
LAUREL         CLOUDY    65  65 100 W6        29.82R
MCCOMB         CLOUDY    58  52  80 N6        29.85R
NATCHEZ        CLOUDY    55  51  86 VRB3      29.87R
PINE BELT      CLOUDY    63  59  88 W6        29.83R
$$

MSZ080>082-271500-
COASTAL MISSISSIPPI

CITY           SKY/WX    TMP DP  RH WIND       PRES   REMARKS
BAY ST LOUIS   PTSUNNY   64  57  77 N12       29.82R
BILOXI         PTSUNNY   68  63  84 NW10      29.81R
PASCAGOULA     CLOUDY    68  61  78 N7        29.80R
GULFPORT       CLOUDY    68  62  81 N10       29.81R
$$

LAZ007>009-015>016-023>026-271500-
NORTHEAST LOUISIANA

CITY           SKY/WX    TMP DP  RH WIND       PRES   REMARKS
BASTROP        FAIR      57  48  72 N6        29.87R
TALLULAH/VBURG CLOUDY    56  49  77 N9        29.87R
VIDALIA        CLOUDY    56  49  78 N6        29.87R
$$




USA.gov is the U.S. government's official web portal to all federal, state and local government web resources and services.